Sedona, AZ

11:02 AM MST on August 28, 2016 (GMT -0700)
Sedona

Weather History for KSEZ - January, 2014

Change the Weather History Date:

Thursday, January 9, 2014

  Actual Average Record
Temperature  
Mean Temperature 46 °F -  
Max Temperature 55 °F 54 °F 64 °F (2013)
Min Temperature 37 °F 27 °F 28 °F (2016)
Degree Days  
Heating Degree Days 19    
Moisture  
Dew Point 18 °F    
Average Humidity 36    
Maximum Humidity 48    
Minimum Humidity 22    
Precipitation  
Precipitation 0.00 in - - ()
Sea Level Pressure  
Sea Level Pressure 30.06 in    
Wind  
Wind Speed 6 mph (ESE)    
Max Wind Speed 13 mph    
Max Gust Speed -    
Visibility 10 miles    
Events      
Averages and records for this station are not official NWS values.
T = Trace of Precipitation, MM = Missing Value Source: NWS Daily Summary

Daily Weather History Graph

Daily Weather History Graph

Search for Another Location

Airport or City:

Trip Planner

Search our weather history database for the weather conditions in past years. The results will help you decide how hot, cold, wet, or windy it might be!

Date:

Astronomy

Jan. 09, 2014 Rise Set
Actual Time 7:35 AM MST 5:33 PM MST
Civil Twilight 7:07 AM MST 6:01 PM MST
Nautical Twilight 6:36 AM MST 6:32 PM MST
Astronomical Twilight 6:05 AM MST 7:03 PM MST
Moon 12:57 PM MST (1/9) 1:52 AM MST (1/9)
Length of Visible Light 10h 53m
Length of Day
9h 58m
Waxing Gibbous, 66% of the Moon is Illuminated
Jan 9
Waxing Gibbous
Jan 15
Full
Jan 23
Last Quarter
Jan 30
New
Feb 6
First Quarter

Hourly Weather History & Observations

Time (MST) Temp. Windchill Dew Point Humidity Pressure Visibility Wind Dir Wind Speed Gust Speed Precip Events Conditions
12:15 AM 41.0 °F 35.2 °F 17.6 °F 39% 30.12 in 10.0 mi NE 9.2 mph - N/A   Clear
12:35 AM 41.0 °F 34.7 °F 17.6 °F 39% 30.12 in 10.0 mi NE 10.4 mph - N/A   Clear
12:55 AM 41.0 °F 36.4 °F 17.6 °F 39% 30.11 in 10.0 mi NE 6.9 mph - N/A   Clear
1:15 AM 41.0 °F 35.8 °F 17.6 °F 39% 30.11 in 10.0 mi NE 8.1 mph - N/A   Clear
1:35 AM 39.2 °F 35.0 °F 17.6 °F 42% 30.11 in 10.0 mi NE 5.8 mph - N/A   Clear
1:55 AM 41.0 °F 36.4 °F 17.6 °F 39% 30.10 in 10.0 mi NNE 6.9 mph - N/A   Clear
2:15 AM 39.2 °F 34.2 °F 17.6 °F 42% 30.10 in 10.0 mi NE 6.9 mph - N/A   Clear
2:35 AM 39.2 °F 35.0 °F 17.6 °F 42% 30.11 in 10.0 mi NNE 5.8 mph - N/A   Clear
2:55 AM 39.2 °F 35.0 °F 17.6 °F 42% 30.11 in 10.0 mi NE 5.8 mph - N/A   Clear
3:15 AM 39.2 °F 33.0 °F 17.6 °F 42% 30.11 in 10.0 mi NE 9.2 mph - N/A   Clear
3:35 AM 39.2 °F 33.6 °F 17.6 °F 42% 30.10 in 10.0 mi NE 8.1 mph - N/A   Clear
3:55 AM 41.0 °F 36.4 °F 17.6 °F 39% 30.10 in 10.0 mi NNE 6.9 mph - N/A   Clear
4:15 AM 41.0 °F 39.0 °F 17.6 °F 39% 30.10 in 10.0 mi NE 3.5 mph - N/A   Clear
4:35 AM 41.0 °F - 17.6 °F 39% 30.10 in 10.0 mi Calm Calm - N/A   Clear
4:55 AM 41.0 °F 38.0 °F 17.6 °F 39% 30.09 in 10.0 mi ENE 4.6 mph - N/A   Clear
5:15 AM 39.2 °F 35.9 °F 17.6 °F 42% 30.08 in 10.0 mi East 4.6 mph - N/A   Clear
5:35 AM 39.2 °F 37.0 °F 17.6 °F 42% 30.07 in 10.0 mi ENE 3.5 mph - N/A   Clear
5:55 AM 37.4 °F 32.1 °F 19.4 °F 48% 30.07 in 10.0 mi NE 6.9 mph - N/A   Clear
6:15 AM 39.2 °F 32.5 °F 17.6 °F 42% 30.07 in 10.0 mi NE 10.4 mph - N/A   Clear
6:35 AM 39.2 °F 31.6 °F 17.6 °F 42% 30.08 in 10.0 mi NNE 12.7 mph - N/A   Clear
6:55 AM 37.4 °F 30.3 °F 17.6 °F 45% 30.08 in 10.0 mi NE 10.4 mph - N/A   Clear
7:15 AM 41.0 °F 35.2 °F 17.6 °F 39% 30.08 in 10.0 mi NE 9.2 mph - N/A   Clear
7:35 AM 41.0 °F 37.1 °F 17.6 °F 39% 30.07 in 10.0 mi ENE 5.8 mph - N/A   Clear
7:55 AM 39.2 °F - 17.6 °F 42% 30.08 in 10.0 mi Calm Calm - N/A   Clear
8:15 AM 39.2 °F 34.2 °F 17.6 °F 42% 30.09 in 10.0 mi ENE 6.9 mph - N/A   Clear
8:35 AM 41.0 °F 38.0 °F 17.6 °F 39% 30.08 in 10.0 mi East 4.6 mph - N/A   Clear
8:55 AM 39.2 °F 35.0 °F 19.4 °F 45% 30.09 in 10.0 mi ENE 5.8 mph - N/A   Clear
9:15 AM 41.0 °F 39.0 °F 19.4 °F 42% 30.09 in 10.0 mi East 3.5 mph - N/A   Clear
9:35 AM 42.8 °F - 19.4 °F 39% 30.10 in 10.0 mi Calm Calm - N/A   Clear
9:55 AM 44.6 °F - 21.2 °F 39% 30.10 in 10.0 mi Calm Calm - N/A   Clear
10:15 AM 44.6 °F 43.1 °F 21.2 °F 39% 30.11 in 10.0 mi East 3.5 mph - N/A   Clear
10:35 AM 48.2 °F - 21.2 °F 34% 30.10 in 10.0 mi SSE 3.5 mph - N/A   Clear
10:55 AM 48.2 °F - 21.2 °F 34% 30.10 in 10.0 mi SE 3.5 mph - N/A   Clear
11:15 AM 51.8 °F - 21.2 °F 30% 30.09 in 10.0 mi SSE 6.9 mph - N/A   Clear
11:35 AM 51.8 °F - 21.2 °F 30% 30.08 in 10.0 mi SSE 4.6 mph - N/A   Clear
11:55 AM 53.6 °F - 19.4 °F 26% 30.06 in 10.0 mi South 6.9 mph - N/A   Clear
12:15 PM 51.8 °F - 17.6 °F 26% 30.06 in 10.0 mi South 9.2 mph - N/A   Clear
12:35 PM 53.6 °F - 19.4 °F 26% 30.05 in 10.0 mi SSE 4.6 mph - N/A   Clear
12:55 PM 55.4 °F - 17.6 °F 23% 30.04 in 10.0 mi South 6.9 mph - N/A   Clear
1:35 PM 53.6 °F - 15.8 °F 22% 30.03 in 10.0 mi South 5.8 mph - N/A   Clear
1:55 PM 53.6 °F - 15.8 °F 22% 30.02 in 10.0 mi SSW 4.6 mph - N/A   Clear
2:15 PM 55.4 °F - 17.6 °F 23% 30.02 in 10.0 mi South 3.5 mph - N/A   Clear
2:35 PM 53.6 °F - 17.6 °F 24% 30.02 in 10.0 mi South 4.6 mph - N/A   Clear
2:55 PM 53.6 °F - 17.6 °F 24% 30.00 in 10.0 mi South 4.6 mph - N/A   Clear
3:15 PM 53.6 °F - 17.6 °F 24% 30.00 in 10.0 mi SSE 5.8 mph - N/A   Clear
4:15 PM 53.6 °F - 17.6 °F 24% 30.00 in 10.0 mi South 5.8 mph - N/A   Clear
4:35 PM 53.6 °F - 17.6 °F 24% 29.99 in 10.0 mi South 5.8 mph - N/A   Clear
4:55 PM 51.8 °F - 17.6 °F 26% 30.00 in 10.0 mi South 4.6 mph - N/A   Clear
5:15 PM 51.8 °F - 17.6 °F 26% 30.00 in 10.0 mi SSW 3.5 mph - N/A   Clear
5:35 PM 48.2 °F - 19.4 °F 32% 30.00 in 10.0 mi SSW 3.5 mph - N/A   Clear
5:55 PM 46.4 °F 45.2 °F 17.6 °F 32% 29.98 in 10.0 mi South 3.5 mph - N/A   Clear
6:15 PM 46.4 °F - 17.6 °F 32% 29.99 in 10.0 mi Calm Calm - N/A   Clear
6:35 PM 46.4 °F - 17.6 °F 32% 30.00 in 10.0 mi Calm Calm - N/A   Clear
6:55 PM 46.4 °F 45.2 °F 19.4 °F 34% 30.00 in 10.0 mi SW 3.5 mph - N/A   Clear
7:15 PM 46.4 °F 45.2 °F 19.4 °F 34% 30.01 in 10.0 mi SSW 3.5 mph - N/A   Clear
7:35 PM 46.4 °F - 19.4 °F 34% 30.02 in 10.0 mi Calm Calm - N/A   Clear
7:55 PM 46.4 °F 45.2 °F 19.4 °F 34% 30.03 in 10.0 mi SSW 3.5 mph - N/A   Clear
8:15 PM 44.6 °F 42.2 °F 19.4 °F 37% 30.03 in 10.0 mi SE 4.6 mph - N/A   Clear
8:35 PM 42.8 °F 39.3 °F 17.6 °F 36% 30.03 in 10.0 mi SSE 5.8 mph - N/A   Clear
8:55 PM 42.8 °F 40.1 °F 17.6 °F 36% 30.04 in 10.0 mi South 4.6 mph - N/A   Clear
9:15 PM 42.8 °F - 17.6 °F 36% 30.05 in 10.0 mi Calm Calm - N/A   Clear
9:35 PM 42.8 °F - 17.6 °F 36% 30.05 in 10.0 mi Calm Calm - N/A   Clear
9:55 PM 42.8 °F - 17.6 °F 36% 30.06 in 10.0 mi Calm Calm - N/A   Clear
10:15 PM 42.8 °F - 17.6 °F 36% 30.05 in 10.0 mi Calm Calm - N/A   Clear
10:35 PM 42.8 °F 41.1 °F 17.6 °F 36% 30.05 in 10.0 mi East 3.5 mph - N/A   Clear
10:55 PM 42.8 °F - 17.6 °F 36% 30.05 in 10.0 mi Calm Calm - N/A   Clear
11:15 PM 41.0 °F 39.0 °F 19.4 °F 42% 30.06 in 10.0 mi NNE 3.5 mph - N/A   Clear
11:35 PM 39.2 °F 35.0 °F 19.4 °F 45% 30.07 in 10.0 mi NNE 5.8 mph - N/A   Clear
11:55 PM 39.2 °F 33.6 °F 19.4 °F 45% 30.07 in 10.0 mi NE 8.1 mph - N/A   Clear